ATLAS 5 CENTAUR DEB, 46647

Orbit data source: Space-Track

ATLAS 5 CENTAUR DEB, 46647 is space debris in HEO originally from a launch on Wed, 17 Sep 2014 UTC launched from the Air Force Eastern Test Range (AFETR). Debris objects in space refer to the collection of defunct objects orbiting the Earth. Examples of debris include non-operational satellites, rocket bodies, and fragments generated from explosions, collisions, or faulty payload assembly.

Loading next visibility...
Identifier
46647, 2014-055CX
Orbit
HEO
Country
Flag of USUS
Related business
Flag of USUnited Launch Alliance/Lockheed Martin (US)
Manufacturer
Unknown
Mission
Spacecraft
Bus & Motor
Unknown
Mass
Unknown
Launch date (UTC)
2014-09-17 (11 years ago)
Launch vehicle
Unknown
Launch site
Air Force Eastern Test Range (AFETR)
Object type
Payload
Rocket body
Debris
Shape & HBR
Unknown shape, 1.1 m
Radar Cross Section
RCS unknown

Expand to show TLE details & history
Last TLE update: 2 days ago

TLE from 2 days ago
0 ATLAS 5 CENTAUR DEB
1 46647U 14055CX  25339.55942913 -.00000024  00000-0  00000-0 0  9999
2 46647  19.6238 165.9982 4854743 124.3963 291.4923  1.84054711 34616
Epoch: 2025-12-05T13:25Z
TLE epoch observation values (Epoch: 2025-12-05T13:25:34.676Z)
Latitude
-0.00007°
Longitude
-109.93472°
Altitude
23,187.484 km
Speed
3.577 km/s
True Right ascension
11h 04m 14s
True Declination
0° 00' 00"
Sunlit
Object was in daylight at epoch
Visualization orbit readout
Latitude
Unknown
Longitude
Unknown
Altitude
Unknown
Speed
Unknown
Apparent Right ascension
Unknown
Apparent Declination
Unknown
Sunlit
N/A
Visualization observer readout
Local Sidereal Time
09:11:47
Azimuth
Unknown
Elevation
Unknown
Doppler factor
Unknown
Orbital elements
Apogee altitude
35,404.838 km
Perigee altitude
8,094.287 km
Semi-major axis
28,127.699 km
Eccentricity
0.48547
Inclination
19.6238°
RAAN
165.9982°
Arg. of periapsis
124.3963°
True anomaly
235.70462°
Mean anomaly
291.4923°
Eccentric anomaly
263.83741°
Mean motion
0.46009 °/min
Orbital period
782.46 mins
BSTAR
0
Loading maneuver chart data...
Computing Atmospheric mass density...

Documentation

Showing up to 5 results
|